Location: Camp at the Woods
(43.2055°N, 93.0905°W)
Time: 07:15:15
(UTC+00:00)

CZ-4B R/B - Pass Details

Date: 05 December 2023
Orbit: 702 x 800 km, 99.0° (Epoch: 29 February)

Event Time Altitude Azimuth Distance (km) Brightness Sun altitude
Rises 23:31:12 0° 145° (SE) 3,235 6.6 -9.7°
Reaches altitude 10° 23:33:38 10° 138° (SE) 2,298 5.8 -10.1°
Maximum altitude 23:38:21 42° 69° (ENE) 1,073 3.8 -10.9°
Drops below altitude 10° 23:42:59 10° 360° (N) 2,253 5.7 -11.7°
Sets 23:45:20 0° 353° (N) 3,165 6.6 -12.1°
